[[{"header":{"parameterUnit":"m.s-1","parameterCategory":1,"la1":30.2991,"la2":30.254,"lo1":-89.0895,"lo2":-89.0444,"dy":0.0017,"dx":0.0017,"nx":28,"ny":28,"refTime":"2023-09-21T09:00:00:Z","depth":0,"parameterNumber":2,"parameterNumberName":"U-component_of_WINDS"},"data":[0,0,0,0,0,0,0,0,0,0,0,0,0,0,0,0,0,0,0,0,0,0,0,0,0,0,0,0,0,0,0,0,0,0,0,0,0,0,0,0,0,0,0,0,0,0,0,0,0,0,0,0,0,0,0,0,0,0,-2.8871,-2.8871,0,-2.8927,-2.8928,-2.8928,-2.8815,-2.8812,-2.8808,-2.8804,-2.8861,-2.8866,-2.8871,0,0,0,0,0,0,0,0,0,0,0,0,0,-2.8663,-2.8667,-2.887,-2.8871,-2.8872,-2.8927,-2.8928,-2.8929,-2.8816,-2.8811,-2.8807,-2.8803,-2.886,-2.8865,-2.8871,0,0,0,0,0,0,0,0,0,0,0,0,0,-2.874,-2.8669,-2.887,-2.8822,-2.8819,-2.8927,-2.8928,-2.8929,-2.8817,-2.8811,-2.8806,-2.8801,-2.8858,-2.8865,-2.8872,-2.9029,0,0,-2.8895,-2.8898,0,0,0,0,0,0,0,0,-2.8736,-2.8747,-2.8829,-2.8826,-2.8822,-2.8858,-2.8875,-2.8963,-2.8818,-2.8818,-2.8804,-2.8798,-2.8865,-2.8871,-2.8894,-2.9032,-2.9034,-2.8896,-2.89,-2.8903,-2.8905,0,0,0,0,0,0,0,-2.873,-2.8744,-2.8893,-2.883,-2.8826,-2.8797,-2.8802,-2.8891,-2.8872,-2.8817,-2.8809,-2.8817,-2.8862,-2.8887,-2.8894,-2.9035,-2.8895,-2.8902,-2.8907,-2.891,-2.9304,-2.931,0,0,0,0,0,0,-2.8731,-2.8741,-2.8891,-2.8894,-2.8764,-2.8806,-2.8811,-2.8852,-2.887,-2.8868,-2.8822,-2.8812,-2.8877,-2.8886,-2.8896,-2.908,-2.8903,-2.891,-2.8915,-2.9298,-2.9305,-2.9312,0,0,0,0,0,0,-2.8727,-2.8746,-2.8889,-2.8816,-2.8831,-2.8815,-2.8863,-2.8856,-2.8882,-2.8874,-2.887,-2.8852,-2.8873,-2.8886,-2.8997,-2.9081,-2.8914,-2.892,-2.9291,-2.93,-2.9309,-2.9451,0,0,0,0,0,0,-2.8722,-2.8745,-2.8805,-2.8818,-2.8836,-2.899,-2.8868,-2.8862,-2.8895,-2.8882,-2.8901,-2.8898,-2.887,-2.8986,-2.9004,-2.9088,-2.8926,-2.9283,-2.9295,-2.9306,-2.9439,-2.9464,-2.9485,0,0,0,0,0,-2.8715,-2.8843,-2.8809,-2.8827,-2.8911,-2.8995,-2.9005,-2.897,-2.8902,-2.8962,-2.8957,-2.8898,-2.9069,-2.8999,-2.9018,-2.9105,-2.9278,-2.9292,-2.9305,-2.9428,-2.9459,-2.9485,0,0,0,0,0,0,-2.884,-2.8844,-2.8806,-2.8942,-2.8969,-2.8975,-2.905,-2.9003,-2.905,-2.9036,-2.8989,-2.8995,-2.9115,-2.9121,-2.9043,-2.9258,-2.9162,-2.918,-2.9249,-2.9278,-2.9301,-2.9296,-2.8932,0,0,0,0,0,-2.8883,-2.8952,-2.8951,-2.9071,-2.9087,-2.9067,-2.9102,-2.9072,-2.9098,-2.9109,-2.9112,-2.9139,-2.9198,-2.9239,-2.9293,-2.9439,-2.9441,-2.9509,-2.9532,-2.9551,-2.9567,-2.9643,-2.9673,-2.9356,-2.9356,-2.9356,0,0,-2.8974,-2.8984,-2.903,-2.9097,-2.9114,-2.9185,-2.9077,-2.9157,-2.9209,-2.9121,-2.9226,-2.923,-2.9256,-2.9386,-2.9443,-2.9395,-2.9655,-2.9568,-2.9584,-2.9589,-2.966,-2.969,-2.9717,-2.9365,-2.9364,-2.9362,0,0,-2.9174,-2.919,-2.9291,-2.9311,-2.9339,-2.9325,-2.9349,-2.9363,-2.9362,-2.9467,-2.9402,-2.9463,-2.9567,-2.9589,-2.9614,-2.9823,-2.977,-2.9842,-2.9963,-3.0038,-3.0063,-3.0085,-3.0159,-3.0186,-2.9858,-2.9858,-2.9859,0,-2.9283,-2.9388,-2.9349,-2.9434,-2.9464,-2.9388,-2.949,-2.9511,-2.9556,-2.9578,-2.9524,-2.9652,-2.9665,-2.9798,-2.9849,-2.9872,-2.9898,-2.9839,-3.0063,-3.0085,-3.0104,-3.0174,-3.0202,-2.9867,-2.9866,-2.9865,-2.9864,0,-2.9519,-2.9594,-2.9672,-2.9717,-2.9757,-2.985,-2.9824,-2.9869,-2.9836,-2.9827,-2.9935,-2.9948,-3.0003,-3.0033,-3.0002,-3.0161,-3.013,-3.0071,-2.9973,-3.0144,-3.0208,-3.0235,-2.9879,-2.9876,-2.9874,-2.9871,0,0,-2.98,-2.9822,-2.9852,-2.9871,-2.9896,-2.9952,-3.0042,-3.0096,-3.0135,-3.0169,-3.0242,-3.0332,-3.0276,-3.0304,-3.0275,-3.0341,-3.0505,-3.0273,-3.0273,-3.0314,-3.068,-3.0724,-3.0756,-3.0471,-3.0475,-3.0479,-3.0677,0,-2.9997,-3.0151,-3.0119,-3.027,-3.0337,-3.0266,-3.0344,-3.0368,-3.0362,-3.0418,-3.0411,-3.0475,-3.0398,-3.0414,-3.0477,-3.0472,-3.0578,-3.0457,-3.0537,-3.054,-3.0531,-3.0789,-3.0836,-3.1022,-3.0703,-3.0707,-3.071,0,-3.0249,-3.0292,-3.045,-3.0464,-3.0491,-3.0562,-3.0609,-3.0663,-3.0689,-3.068,-3.0712,-3.067,-3.0757,-3.066,-3.0779,-3.0698,-3.0729,-3.0732,-3.0738,-3.0743,-3.0634,-3.08,-3.1081,-3.1109,-3.0749,-3.0746,-3.0743,0,-3.0436,-3.0533,-3.064,-3.0659,-3.0679,-3.073,-3.074,-3.076,-3.0795,-3.0836,-3.0858,-3.0909,-3.0937,-3.0977,-3.0949,-3.0881,-3.1073,-3.0974,-3.1067,-3.1068,-3.1109,-3.1107,-3.1398,-3.1132,-3.1132,-3.1131,-3.1131,0,-3.0659,-3.0758,-3.0724,-3.079,-3.0898,-3.086,-3.0968,-3.097,-3.0989,-3.1053,-3.0995,-3.1056,-3.1017,-3.1075,-3.1054,-3.1155,-3.1169,-3.1163,-3.1156,-3.1167,-3.1168,-3.1185,-3.1171,-3.1139,-3.1137,-3.1136,-3.1134,0,-3.0885,-3.0867,-3.0978,-3.0988,-3.0993,-3.1073,-3.108,-3.1141,-3.1131,-3.1213,-3.123,-3.1215,-3.128,-3.1257,-3.1327,-3.1312,-3.1441,-3.1418,-3.1433,-3.1426,-3.152,-3.1511,-3.1832,-3.1871,-3.1582,-3.1585,-3.1587,0,-3.1028,-3.1103,-3.1121,-3.116,-3.1175,-3.1239,-3.1274,-3.1239,-3.1278,-3.1313,-3.1369,-3.1429,-3.1475,-3.1583,-3.1577,-3.163,-3.1607,-3.1716,-3.1614,-3.1623,-3.1606,-3.1602,-3.1608,-3.1735,-3.1739,-3.1741,-3.1744,0,-3.1284,-3.1271,-3.1324,-3.1375,-3.1419,-3.1457,-3.149,-3.1525,-3.1492,-3.1539,-3.1605,-3.1641,-3.1712,-3.1772,-3.182,-3.1829,-3.1781,-3.1776,-3.18,-3.1811,-3.1816,-3.1813,-3.1486,-3.1768,-3.1766,-3.1764,-3.1763,-3.1762,-3.1471,-3.1534,-3.1556,-3.1618,-3.1639,-3.1671,-3.1728,-3.1726,-3.1781,-3.1836,-3.1813,-3.1889,-3.1912,-3.197,-3.1987,-3.2046,-3.2003,-3.2039,-3.2047,-3.2056,-3.2067,-3.1809,-3.2054,-3.2054,-3.2053,-3.2052,-3.2052,0,-3.1722,-3.1733,-3.179,-3.1838,-3.1887,-3.1838,-3.1872,-3.1915,-3.1983,-3.2009,-3.2056,-3.2131,-3.2189,-3.2189,-3.2243,-3.229,-3.2269,-3.2305,-3.23,-3.2303,-3.2103,-3.2076,-3.2321,-3.2321,-3.2321,-3.2321,-3.232,-3.232,-3.1858,-3.1961,-3.1951,-3.2064,-3.2074,-3.2149,-3.2172,-3.2201,-3.2221,-3.2309,-3.2357,-3.2356,-3.2371,-3.2426,-3.2477,-3.2475,-3.2496,-3.2541,-3.2531,-3.2344,-3.2317,-3.2291,-3.2266,-3.2546,-3.2547,-3.2725,-3.2727,-3.2728]},{"header":{"parameterUnit":"m.s-1","parameterCategory":1,"la1":30.2991,"la2":30.254,"lo1":-89.0895,"lo2":-89.0444,"dy":0.0017,"dx":0.0017,"nx":28,"ny":28,"refTime":"2023-09-21T09:00:00:Z","depth":0,"parameterNumber":3,"parameterNumberName":"V-component_of_WINDS"},"data":[0,0,0,0,0,0,0,0,0,0,0,0,0,0,0,0,0,0,0,0,0,0,0,0,0,0,0,0,0,0,0,0,0,0,0,0,0,0,0,0,0,0,0,0,0,0,0,0,0,0,0,0,0,0,0,0,0,0,-1.5905,-1.5905,0,-1.5936,-1.5937,-1.5937,-1.593,-1.5929,-1.5928,-1.5928,-1.5959,-1.596,-1.5961,0,0,0,0,0,0,0,0,0,0,0,0,0,-1.5837,-1.5839,-1.5905,-1.5905,-1.5906,-1.5936,-1.5937,-1.5937,-1.593,-1.5929,-1.5928,-1.5928,-1.5958,-1.596,-1.5962,0,0,0,0,0,0,0,0,0,0,0,0,0,-1.5867,-1.5839,-1.5905,-1.5906,-1.5906,-1.5936,-1.5937,-1.5937,-1.593,-1.5929,-1.5928,-1.5927,-1.5958,-1.596,-1.5962,-1.5992,0,0,-1.5968,-1.5969,0,0,0,0,0,0,0,0,-1.5866,-1.587,-1.5905,-1.5906,-1.5906,-1.5928,-1.5924,-1.5956,-1.593,-1.5921,-1.5928,-1.5927,-1.5949,-1.5952,-1.596,-1.5994,-1.5995,-1.5968,-1.597,-1.597,-1.5971,0,0,0,0,0,0,0,-1.5864,-1.5869,-1.5917,-1.5906,-1.5906,-1.5904,-1.5907,-1.593,-1.594,-1.5922,-1.5921,-1.5925,-1.5949,-1.5958,-1.596,-1.5996,-1.5968,-1.597,-1.5971,-1.5972,-1.6055,-1.6056,0,0,0,0,0,0,-1.5861,-1.5867,-1.5916,-1.5918,-1.5883,-1.5906,-1.591,-1.5922,-1.5939,-1.5941,-1.5926,-1.5925,-1.5955,-1.5958,-1.5961,-1.5998,-1.597,-1.5972,-1.5974,-1.6054,-1.6055,-1.6056,0,0,0,0,0,0,-1.586,-1.5866,-1.5915,-1.5892,-1.5899,-1.5908,-1.5922,-1.5923,-1.5932,-1.5943,-1.5944,-1.5933,-1.5954,-1.5959,-1.5985,-1.5999,-1.5973,-1.5975,-1.6053,-1.6054,-1.6056,-1.6071,0,0,0,0,0,0,-1.5858,-1.5865,-1.5878,-1.5893,-1.59,-1.5938,-1.5923,-1.5924,-1.5935,-1.5934,-1.5949,-1.5951,-1.5954,-1.5982,-1.5987,-1.6001,-1.5977,-1.6052,-1.6054,-1.6055,-1.6069,-1.6073,-1.6076,0,0,0,0,0,-1.5856,-1.5881,-1.5878,-1.5884,-1.5915,-1.5939,-1.5943,-1.5946,-1.5936,-1.5948,-1.5955,-1.5951,-1.5996,-1.5984,-1.599,-1.6005,-1.6051,-1.6053,-1.6055,-1.6068,-1.6072,-1.6076,0,0,0,0,0,0,-1.5867,-1.5883,-1.588,-1.5911,-1.5924,-1.5938,-1.5953,-1.5951,-1.5966,-1.5964,-1.5966,-1.597,-1.5996,-1.6003,-1.599,-1.6035,-1.6022,-1.6025,-1.603,-1.6034,-1.6037,-1.6035,-1.5979,0,0,0,0,0,-1.5873,-1.5892,-1.5904,-1.593,-1.5937,-1.5944,-1.5954,-1.5955,-1.5968,-1.5974,-1.5982,-1.5995,-1.6012,-1.6023,-1.604,-1.607,-1.6073,-1.6083,-1.6086,-1.6089,-1.6092,-1.6107,-1.6112,-1.6063,-1.6063,-1.6063,0,0,-1.5886,-1.5897,-1.5909,-1.5933,-1.5943,-1.5961,-1.5949,-1.5969,-1.5982,-1.5977,-1.6002,-1.6008,-1.6022,-1.6051,-1.6063,-1.6057,-1.6106,-1.6092,-1.6094,-1.6095,-1.611,-1.6115,-1.6119,-1.6065,-1.6065,-1.6064,0,0,-1.5919,-1.5929,-1.5952,-1.5962,-1.5977,-1.5981,-1.5987,-1.6001,-1.6005,-1.603,-1.6026,-1.6042,-1.6071,-1.6081,-1.609,-1.6125,-1.6121,-1.613,-1.6147,-1.6162,-1.6166,-1.617,-1.6182,-1.6186,-1.6133,-1.6133,-1.6133,0,-1.5933,-1.5961,-1.5964,-1.5984,-1.5994,-1.599,-1.6012,-1.6021,-1.6041,-1.6048,-1.6041,-1.6077,-1.6086,-1.6116,-1.6124,-1.6132,-1.6137,-1.6129,-1.6166,-1.6169,-1.6172,-1.6184,-1.6188,-1.6134,-1.6134,-1.6134,-1.6134,0,-1.5977,-1.5997,-1.6013,-1.6032,-1.6044,-1.6065,-1.607,-1.6082,-1.6081,-1.6086,-1.6111,-1.6122,-1.614,-1.6147,-1.6146,-1.6176,-1.6172,-1.6165,-1.6152,-1.6178,-1.6188,-1.6193,-1.6136,-1.6135,-1.6135,-1.6135,0,0,-1.6019,-1.6038,-1.6044,-1.6052,-1.6068,-1.6083,-1.6103,-1.6121,-1.6131,-1.6144,-1.616,-1.6185,-1.6178,-1.6188,-1.6189,-1.6202,-1.6229,-1.6194,-1.6194,-1.62,-1.6261,-1.6266,-1.6271,-1.6226,-1.6227,-1.6227,-1.626,0,-1.6053,-1.609,-1.6092,-1.6125,-1.6142,-1.6137,-1.6155,-1.6166,-1.6171,-1.6185,-1.619,-1.6208,-1.6198,-1.6204,-1.6217,-1.6223,-1.6241,-1.622,-1.6241,-1.6242,-1.6238,-1.6277,-1.6282,-1.6313,-1.6264,-1.6265,-1.6265,0,-1.6098,-1.6113,-1.6147,-1.6159,-1.6167,-1.6183,-1.6198,-1.6213,-1.6225,-1.6227,-1.6238,-1.6236,-1.6256,-1.6242,-1.6269,-1.6255,-1.6263,-1.6267,-1.6268,-1.6271,-1.6255,-1.628,-1.6322,-1.6327,-1.6272,-1.6271,-1.6271,0,-1.6125,-1.6153,-1.6177,-1.6184,-1.6199,-1.621,-1.6217,-1.6228,-1.6238,-1.6251,-1.6258,-1.6273,-1.6282,-1.6293,-1.6296,-1.6285,-1.6322,-1.6309,-1.6324,-1.6324,-1.6333,-1.6332,-1.6377,-1.6338,-1.6338,-1.6338,-1.6338,0,-1.6163,-1.6184,-1.6189,-1.6204,-1.6227,-1.6228,-1.6251,-1.6257,-1.6267,-1.6282,-1.6278,-1.6293,-1.6295,-1.6309,-1.6311,-1.6333,-1.6337,-1.6339,-1.6339,-1.6339,-1.6339,-1.6345,-1.6343,-1.6339,-1.6339,-1.6339,-1.6338,0,-1.6197,-1.6201,-1.6227,-1.6239,-1.6242,-1.6258,-1.6268,-1.6282,-1.6286,-1.6305,-1.6309,-1.6315,-1.6332,-1.6335,-1.6355,-1.6356,-1.6382,-1.638,-1.6378,-1.6378,-1.6393,-1.6392,-1.6444,-1.645,-1.6407,-1.6407,-1.6408,0,-1.6221,-1.6237,-1.625,-1.626,-1.6267,-1.6283,-1.6294,-1.6295,-1.6306,-1.632,-1.6331,-1.6348,-1.6361,-1.6388,-1.6394,-1.6408,-1.6407,-1.6424,-1.6409,-1.6408,-1.6407,-1.6406,-1.6407,-1.6427,-1.6427,-1.6428,-1.6428,0,-1.6263,-1.6264,-1.6279,-1.6294,-1.6306,-1.6318,-1.633,-1.6338,-1.6341,-1.6352,-1.637,-1.638,-1.64,-1.6416,-1.643,-1.6436,-1.6433,-1.6433,-1.6437,-1.6437,-1.6435,-1.6436,-1.6386,-1.6432,-1.6431,-1.6431,-1.6431,-1.6431,-1.6292,-1.6306,-1.6317,-1.6333,-1.6342,-1.6353,-1.6366,-1.6371,-1.6385,-1.6402,-1.6402,-1.642,-1.643,-1.6449,-1.6456,-1.647,-1.6465,-1.6471,-1.6473,-1.6475,-1.6476,-1.6433,-1.6473,-1.6473,-1.6473,-1.6473,-1.6473,0,-1.6334,-1.634,-1.6355,-1.6371,-1.6384,-1.6379,-1.6391,-1.6402,-1.6418,-1.6428,-1.6441,-1.646,-1.6475,-1.6482,-1.6497,-1.6506,-1.6505,-1.651,-1.651,-1.6511,-1.648,-1.6475,-1.6511,-1.6511,-1.6511,-1.6511,-1.6511,-1.6511,-1.6357,-1.638,-1.6382,-1.6408,-1.6415,-1.6433,-1.644,-1.6449,-1.6457,-1.6479,-1.6491,-1.6495,-1.6504,-1.6519,-1.6532,-1.6534,-1.6539,-1.6545,-1.6546,-1.6517,-1.6513,-1.6509,-1.6504,-1.6546,-1.6546,-1.6575,-1.6576,-1.6576]}]]